Flag for Algeria Weather past 2 weeks in Oran, Algeria

Now
77 °F

Passing clouds.


Feels Like: 78 °F
Forecast: 77 / 83 °F
Wind: 7 mph from North

Location: Oran / Es Senia

Current Time: Jul 31, 2015 at 4:08:24 AM

Latest Report: Jul 31, 2015 at 3:30 AM


Visibility: N/A

Pressure: 29.80 "Hg

Humidity: 83%

Dew point: 72 °F

Location of OranLocation

Historic Weather in Oran — Graph

°F

Oran temperature yesterday

Maximum temperature yesterday: 100 °F (at 2:00 PM)
Minimum temperature yesterday: 79 °F (at 4:30 AM)
Average temperature yesterday: 87 °F

Past Weeks' High & Low Weather Summary

 TemperatureHumidityPressure
High102 °F (Jul 29, 12:00 PM)100% (Jul 16, 5:30 AM)30.04 "Hg (Jul 16, 5:30 AM)
Low66 °F (Jul 21, 6:00 AM)22% (Jul 22, 11:30 AM)29.77 "Hg (Jul 29, 6:00 PM)
Average83 °F66%29.92 "Hg
* Reported Jul 16 3:00 AM — Jul 31 3:00 AM, Oran, Weather by CustomWeather, © 2015

Note: Actual official high and low records may vary slightly from our data, if they occured in-between our weather recording intervals... More about our weather records

Advertising

Oran weather history for previous 24 hours

 ConditionsComfort  
Time TempWeatherWind HumidityBarometerVisibility
3:00 AM
Fri, Jul 31
79 °FPassing clouds.5 mph84%29.80 "HgN/A
2:30 AM77 °FPassing clouds.2 mph79%29.83 "HgN/A
2:00 AM77 °FPassing clouds.5 mph79%29.83 "HgN/A
1:30 AM79 °FPassing clouds.5 mph74%29.83 "HgN/A
1:00 AM79 °FPassing clouds.5 mph74%29.83 "HgN/A
12:30 AM79 °FPassing clouds.5 mph74%29.83 "HgN/A
12:00 AM79 °FPassing clouds.5 mph74%29.83 "HgN/A
11:30 PM
Thu, Jul 30
79 °FPassing clouds.No wind61%29.83 "HgN/A
11:00 PM79 °FPassing clouds.2 mph61%29.83 "HgN/A
10:30 PM82 °FPassing clouds.5 mph55%29.83 "HgN/A
10:00 PM82 °FPassing clouds.7 mph55%29.83 "HgN/A
9:30 PM84 °FPassing clouds.5 mph51%29.80 "HgN/A
9:00 PM84 °FPassing clouds.No wind58%29.80 "HgN/A
8:30 PM86 °FPassing clouds.2 mph59%29.80 "HgN/A
8:00 PM88 °FPassing clouds.2 mph55%29.80 "HgN/A
7:30 PM90 °FSunny.5 mph52%29.80 "Hg10 mi
7:00 PM90 °FSunny.5 mph52%29.80 "Hg10 mi
6:30 PM91 °FSunny.7 mph52%29.80 "Hg10 mi
6:00 PM91 °FSunny.5 mph52%29.80 "Hg10 mi
5:30 PM91 °FSunny.8 mph52%29.80 "Hg10 mi
5:00 PM93 °FSunny.7 mph49%29.80 "Hg10 mi
4:30 PM91 °FSunny.12 mph52%29.80 "Hg10 mi
4:00 PM91 °FSunny.9 mph52%29.80 "Hg10 mi
3:30 PM95 °FSunny.7 mph34%29.83 "Hg10 mi
3:00 PM100 °FSunny.14 mph29%29.83 "Hg10 mi
2:30 PM99 °FSunny.14 mph31%29.80 "Hg10 mi
2:00 PM100 °FSunny.15 mph29%29.83 "Hg10 mi
1:30 PM99 °FSunny.14 mph29%29.83 "Hg10 mi
1:00 PM99 °FSunny.14 mph29%29.86 "Hg10 mi
12:30 PM97 °FSunny.18 mph34%29.83 "Hg10 mi
12:00 PM97 °FSunny.18 mph34%29.83 "Hg10 mi
11:30 AM95 °FSunny.18 mph36%29.83 "Hg10 mi
11:00 AM95 °FSunny.20 mph36%29.83 "Hg10 mi
10:30 AM93 °FSunny.18 mph39%29.83 "Hg10 mi
10:00 AM91 °FSunny.14 mph44%29.86 "Hg10 mi
9:30 AM88 °FPassing clouds.14 mph46%29.86 "HgN/A
9:00 AM86 °FPassing clouds.12 mph49%29.86 "HgN/A
8:30 AM86 °FPassing clouds.9 mph55%29.83 "HgN/A
8:00 AM82 °FPassing clouds.13 mph66%29.83 "HgN/A
7:30 AM81 °FPassing clouds.7 mph66%29.83 "HgN/A
7:00 AM79 °FPassing clouds.8 mph74%29.83 "HgN/A
6:30 AM79 °FScattered clouds.5 mph79%29.83 "HgN/A
6:00 AM81 °FPassing clouds.10 mph74%29.83 "HgN/A
5:30 AM81 °FPassing clouds.8 mph79%29.83 "HgN/A
4:30 AM79 °FPassing clouds.6 mph89%29.80 "HgN/A
4:00 AM81 °FPassing clouds.8 mph84%29.83 "HgN/A
Weather by CustomWeather, © 2015

See weather overviewHow to use our weather pages